Location: Deerlick Astronomy Village
(33.5614°N, 82.7631°W)
Time: 18:07:49
(UTC-05:00)

CAS-4A - Pass Details

Date: 04 November 2020
Orbit: 528 x 543 km, 43.0° (Epoch: 30 November)

Event Time Altitude Azimuth Distance (km) Brightness Sun altitude
Exits shadow 04:53:50 59° 96° (E) 616 ? -25.2°
Drops below altitude 10° 04:57:12 10° 115° (ESE) 1,767 ? -24.5°
Sets 04:59:25 0° 117° (ESE) 2,652 ? -24.0°
